Date String (YYYY-MM-DD hh:mm:ss) UTC,Instrument flags,absolute air pressure of the measurement (hPa),sample flow rate (lpm),inlet stack bypass flow (lpm),air temperature of the measurement (°C),ambient temperature measured by the external sensor (°C),aerosol sample conditioner tube jacket temperature (°C),OPC LED temperature (°C),internal box temperature (°C),relative humidity of the measurement (%),span deviation,mass concentration of particles derived from Lorenz-Mie calculation of OPC scattering (μg/m³),mass concentration of particles derived from Lorenz-Mie calculation of OPC scattering (μg/m³),mass concentration of particles derived from Lorenz-Mie calculation of OPC scattering (μg/m³)
DateTimeUTC,F1_M11,P_M11,Q1_M11,Q2_M11,T1_M11,T2_M11,T3_M11,T4_M11,T5_M11,U1_M11,ZSPAN_M11,X2_M11,X0_M11,X1_M11
2023-10-12 05:00:00,SystemResetWarning,0814.9,5.00,000.00,029.0,027.6,000.0,037.4,030.7,19.1,0000.0,0000.53,0002.02,0000.41
2023-10-12 05:01:00,SystemResetWarning,0814.9,5.00,000.00,029.0,027.6,000.0,037.4,030.6,19.0,0000.0,0000.56,0002.12,0000.41
2023-10-12 05:02:00,SystemResetWarning,0814.9,5.00,000.00,029.0,027.6,000.0,037.5,030.6,18.9,0000.0,0000.57,0002.19,0000.41
2023-10-12 05:03:00,SystemResetWarning,0815.0,5.00,000.00,029.0,027.6,000.0,037.5,030.6,18.9,0000.0,0000.60,0002.25,0000.42
2023-10-12 05:04:00,SystemResetWarning,0814.9,5.00,000.00,029.0,027.6,000.0,037.5,030.6,18.9,0000.0,0000.58,0002.16,0000.43
2023-10-12 05:05:00,SystemResetWarning,0814.9,5.00,000.00,029.0,027.6,000.0,037.5,030.7,19.0,0000.0,0000.60,0002.19,0000.44
2023-10-12 05:06:00,SystemResetWarning,0814.9,5.00,000.00,029.1,027.6,000.0,037.5,030.7,18.9,0000.0,0000.63,0002.23,0000.46
2023-10-12 05:07:00,SystemResetWarning,0814.9,5.00,000.00,029.1,027.6,000.0,037.5,030.7,18.9,0000.0,0000.66,0002.38,0000.47
2023-10-12 05:08:00,SystemResetWarning,0814.9,5.00,000.00,029.1,027.6,000.0,037.5,030.7,18.8,0000.0,0000.73,0002.84,0000.50
2023-10-12 05:09:00,SystemResetWarning,0814.9,5.00,000.00,029.1,027.7,000.0,037.5,030.7,18.7,0000.0,0000.81,0002.57,0000.52
2023-10-12 05:10:00,SystemResetWarning,0815.0,5.00,000.00,029.1,027.7,000.0,037.5,030.7,18.7,0000.0,0000.85,0001.99,0000.54
2023-10-12 05:11:00,SystemResetWarning,0815.0,5.00,000.00,029.1,027.7,000.0,037.5,030.7,18.6,0000.0,0000.88,0002.08,0000.55
2023-10-12 05:12:00,SystemResetWarning,0815.0,5.00,000.00,029.1,027.7,000.0,037.5,030.7,18.5,0000.0,0000.88,0002.01,0000.57
2023-10-12 05:13:00,SystemResetWarning,0814.9,5.00,000.00,029.1,027.7,000.0,037.5,030.7,18.6,0000.0,0000.88,0001.94,0000.59
2023-10-12 05:14:00,SystemResetWarning,0814.9,5.00,000.00,029.1,027.7,000.0,037.5,030.7,18.8,0000.0,0000.89,0001.94,0000.60
2023-10-12 05:15:00,SystemResetWarning,0815.0,5.00,000.00,029.1,027.7,000.0,037.5,030.7,18.8,0000.0,0000.94,0002.07,0000.61
2023-10-12 05:16:00,SystemResetWarning,0814.9,5.00,000.00,029.1,027.7,000.0,037.5,030.7,18.9,0000.0,0000.97,0002.13,0000.63
2023-10-12 05:17:00,SystemResetWarning,0814.9,5.00,000.00,029.1,027.7,000.0,037.5,030.7,19.0,0000.0,0000.97,0002.17,0000.63
2023-10-12 05:18:00,SystemResetWarning,0815.0,5.00,000.00,029.1,027.7,000.0,037.5,030.7,18.9,0000.0,0001.01,0002.72,0000.63
2023-10-12 05:19:00,SystemResetWarning,0814.9,5.00,000.00,029.1,027.7,000.0,037.5,030.8,18.9,0000.0,0001.01,0003.08,0000.62
2023-10-12 05:20:00,SystemResetWarning,0814.9,5.00,000.00,029.1,027.7,000.0,037.5,030.8,18.9,0000.0,0000.96,0002.99,0000.61
2023-10-12 05:21:00,SystemResetWarning,0814.9,5.00,000.00,029.1,027.7,000.0,037.6,030.8,19.0,0000.0,0000.95,0002.91,0000.60
2023-10-12 05:22:00,SystemResetWarning,0814.9,5.00,000.00,029.1,027.7,000.0,037.6,030.7,19.2,0000.0,0000.93,0002.82,0000.59
2023-10-12 05:23:00,SystemResetWarning,0814.9,5.00,000.00,029.1,027.7,000.0,037.6,030.8,19.2,0000.0,0000.92,0002.86,0000.58
2023-10-12 05:24:00,SystemResetWarning,0814.9,5.00,000.00,029.1,027.7,000.0,037.6,030.8,19.2,0000.0,0000.90,0002.86,0000.56
2023-10-12 05:25:00,SystemResetWarning,0814.9,5.00,000.00,029.1,027.7,000.0,037.6,030.8,19.2,0000.0,0000.89,0002.85,0000.55
2023-10-12 05:26:00,SystemResetWarning,0814.9,5.00,000.00,029.1,027.7,000.0,037.6,030.8,19.2,0000.0,0000.84,0002.73,0000.53
2023-10-12 05:27:00,SystemResetWarning,0814.9,5.00,000.00,029.1,027.7,000.0,037.6,030.8,19.2,0000.0,0000.80,0002.65,0000.51
2023-10-12 05:28:00,SystemResetWarning,0814.9,5.00,000.00,029.1,027.7,000.0,037.6,030.8,19.2,0000.0,0000.77,0002.53,0000.50
2023-10-12 05:29:00,SystemResetWarning,0814.9,5.00,000.00,029.1,027.7,000.0,037.6,030.8,19.2,0000.0,0000.72,0001.96,0000.49
2023-10-12 05:30:00,SystemResetWarning,0814.8,5.00,000.00,029.1,027.7,000.0,037.6,030.8,19.2,0000.0,0000.68,0001.12,0000.48
2023-10-12 05:31:00,SystemResetWarning,0814.8,5.00,000.00,029.1,027.7,000.0,037.6,030.8,19.2,0000.0,0000.66,0001.06,0000.48
2023-10-12 05:32:00,SystemResetWarning,0814.8,5.01,000.00,029.2,027.7,000.0,037.6,030.8,19.2,0000.0,0000.64,0001.05,0000.47
2023-10-12 05:33:00,SystemResetWarning,0814.8,5.01,000.00,029.1,027.7,000.0,037.6,030.8,19.2,0000.0,0000.62,0001.02,0000.46
2023-10-12 05:34:00,SystemResetWarning,0814.8,5.00,000.00,029.2,027.7,000.0,037.6,030.8,19.2,0000.0,0000.61,0000.96,0000.46
2023-10-12 05:35:00,SystemResetWarning,0814.7,5.00,000.00,029.2,027.7,000.0,037.6,030.8,19.2,0000.0,0000.59,0000.90,0000.45
2023-10-12 05:36:00,SystemResetWarning,0814.7,5.00,000.00,029.2,027.7,000.0,037.6,030.8,19.3,0000.0,0000.57,0000.87,0000.44
2023-10-12 05:37:00,SystemResetWarning,0814.6,5.00,000.00,029.2,027.7,000.0,037.6,030.8,19.3,0000.0,0000.58,0000.90,0000.45
2023-10-12 05:38:00,SystemResetWarning,0814.7,5.00,000.00,029.2,027.7,000.0,037.6,030.8,19.3,0000.0,0000.59,0000.95,0000.44
2023-10-12 05:39:00,SystemResetWarning,0814.6,5.00,000.00,029.2,027.7,000.0,037.6,030.8,19.3,0000.0,0000.59,0000.97,0000.44
2023-10-12 05:40:00,SystemResetWarning,0814.6,5.00,000.00,029.2,027.7,000.0,037.6,030.8,19.4,0000.0,0000.60,0001.00,0000.44
2023-10-12 05:41:00,SystemResetWarning,0814.6,5.00,000.00,029.2,027.7,000.0,037.6,030.8,19.4,0000.0,0000.59,0000.94,0000.44
2023-10-12 05:42:00,SystemResetWarning,0814.6,5.01,000.00,029.2,027.7,000.0,037.6,030.8,19.5,0000.0,0000.56,0000.92,0000.43
2023-10-12 05:43:00,SystemResetWarning,0814.6,5.01,000.00,029.2,027.7,000.0,037.6,030.8,19.6,0000.0,0000.61,0000.99,0000.43
2023-10-12 05:44:00,SystemResetWarning,0814.5,5.00,000.00,029.2,027.7,000.0,037.6,030.8,19.7,0000.0,0000.60,0000.95,0000.44
2023-10-12 05:45:00,SystemResetWarning,0814.5,5.00,000.00,029.2,027.7,000.0,037.6,030.8,19.8,0000.0,0000.60,0000.94,0000.43
2023-10-12 05:46:00,SystemResetWarning,0814.5,5.00,000.00,029.2,027.7,000.0,037.6,030.8,19.9,0000.0,0000.62,0001.01,0000.44
2023-10-12 05:47:00,SystemResetWarning,0814.5,5.00,000.00,029.2,027.7,000.0,037.6,030.8,20.0,0000.0,0000.66,0001.20,0000.45
2023-10-12 05:48:00,SystemResetWarning,0814.5,5.00,000.00,029.2,027.7,000.0,037.6,030.8,20.1,0000.0,0000.72,0001.43,0000.46
2023-10-12 05:49:00,SystemResetWarning,0814.4,5.00,000.00,029.2,027.7,000.0,037.6,030.8,20.2,0000.0,0000.72,0001.41,0000.46
2023-10-12 05:50:00,SystemResetWarning,0814.4,5.00,000.00,029.2,027.8,000.0,037.6,030.9,20.2,0000.0,0000.73,0001.38,0000.46
2023-10-12 05:51:00,SystemResetWarning,0814.4,5.00,000.00,029.2,027.8,000.0,037.6,030.9,20.2,0000.0,0000.72,0001.35,0000.46
2023-10-12 05:52:00,SystemResetWarning,0814.4,4.99,000.00,029.2,027.8,000.0,037.6,030.8,20.2,0000.0,0000.74,0001.43,0000.46
2023-10-12 05:53:00,SystemResetWarning,0814.5,5.00,000.00,029.2,027.8,000.0,037.7,030.8,20.2,0000.0,0000.75,0001.47,0000.47
2023-10-12 05:54:00,SystemResetWarning,0814.5,5.01,000.00,029.2,027.8,000.0,037.7,030.8,20.2,0000.0,0000.73,0001.44,0000.47
2023-10-12 05:55:00,SystemResetWarning,0814.6,5.01,000.00,029.2,027.8,000.0,037.7,030.8,20.2,0000.0,0000.73,0001.47,0000.47
2023-10-12 05:56:00,SystemResetWarning,0814.6,5.01,000.00,029.2,027.8,000.0,037.7,030.9,20.3,0000.0,0000.74,0001.51,0000.47
2023-10-12 05:57:00,SystemResetWarning,0814.6,5.00,000.00,029.2,027.8,000.0,037.7,030.9,20.3,0000.0,0000.75,0001.54,0000.48
2023-10-12 05:58:00,SystemResetWarning,0814.7,5.00,000.00,029.2,027.8,000.0,037.7,030.8,20.3,0000.0,0000.75,0001.76,0000.48
2023-10-12 05:59:00,SystemResetWarning,0814.7,5.00,000.00,029.2,027.8,000.0,037.7,030.8,20.3,0000.0,0000.73,0001.59,0000.48
